User: anonymous   Login
Location: Bois de la Silve
(44.4667°N, 6.7833°E)
Time: 19:45:34
(UTC+00:00)
Language:

Cosmos 2100 Rocket - Orbit

View from above orbital plane
View from above orbital plane
View from above satellite
View from above satellite

Ground track
Ground track

The orbit data is extracted from the following two-line orbital elements,

1 20805U 90083B   20263.53231622 -.00000068  00000-0 -85343-4 0  9995
2 20805  82.9330 257.1340 0029503 310.3735 167.6393 13.75901954507084
Epoch (UTC): 19 September 2020 12:46:32
Eccentricity: 0.0029503
inclination: 82.9330°
perigee height: 957 km
apogee height: 1000 km
right ascension of ascending node: 257.1340°
argument of perigee: 310.3735°
revolutions per day: 13.75901954
mean anomaly at epoch: 167.6393°
orbit number at epoch: 50708

The dashed part of the orbit path shows where the satellite is in the earth's shadow,  

DLR